[[{"header":{"parameterUnit":"m.s-1","parameterCategory":1,"la1":30.2991,"la2":30.254,"lo1":-89.0895,"lo2":-89.0444,"dy":0.0017,"dx":0.0017,"nx":28,"ny":28,"refTime":"2023-08-04T21:00:00:Z","depth":0,"parameterNumber":2,"parameterNumberName":"U-component_of_WINDS"},"data":[0,0,0,0,0,0,0,0,0,0,0,0,0,0,0,0,0,0,0,0,0,0,0,0,0,0,0,0,0,0,0,0,0,0,0,0,0,0,0,0,0,0,0,0,0,0,0,0,0,0,0,0,0,0,0,0,0,0,2.4373,2.4374,0,2.4539,2.4541,2.4543,2.4569,2.4568,2.4566,2.4565,2.474,2.4745,2.4751,0,0,0,0,0,0,0,0,0,0,0,0,0,2.408,2.4085,2.4372,2.4374,2.4376,2.4539,2.4541,2.4543,2.457,2.4568,2.4566,2.4564,2.4738,2.4745,2.4752,0,0,0,0,0,0,0,0,0,0,0,0,0,2.4223,2.4087,2.4372,2.4409,2.4414,2.4538,2.4541,2.4544,2.457,2.4568,2.4565,2.4563,2.4735,2.4744,2.4753,2.4853,0,0,2.4781,2.4785,0,0,0,0,0,0,0,0,2.4215,2.4234,2.4401,2.4407,2.4412,2.4531,2.4502,2.4648,2.4571,2.4511,2.4565,2.4562,2.4672,2.4686,2.4723,2.4861,2.4869,2.4781,2.4787,2.4791,2.4793,0,0,0,0,0,0,0,2.4205,2.4227,2.4438,2.4404,2.4411,2.4418,2.4436,2.453,2.4602,2.4516,2.4518,2.4537,2.4675,2.4714,2.4727,2.4872,2.4781,2.4789,2.4795,2.4798,2.5101,2.5104,0,0,0,0,0,0,2.4188,2.4218,2.4433,2.4443,2.4306,2.4426,2.4445,2.4495,2.4601,2.4615,2.4539,2.4538,2.4699,2.4716,2.4733,2.4857,2.4791,2.4799,2.4804,2.5098,2.5102,2.5104,0,0,0,0,0,0,2.4181,2.4207,2.4426,2.4332,2.436,2.4433,2.4489,2.45,2.4539,2.4619,2.4632,2.4565,2.4698,2.472,2.4823,2.4863,2.4803,2.4811,2.5095,2.5099,2.5103,2.5106,0,0,0,0,0,0,2.4173,2.4204,2.4242,2.4332,2.4365,2.4512,2.4491,2.4505,2.4554,2.4554,2.4647,2.466,2.4698,2.4809,2.4832,2.4875,2.4819,2.5092,2.5097,2.5102,2.5102,2.5109,2.5115,0,0,0,0,0,2.4162,2.4237,2.4244,2.427,2.4414,2.4514,2.4533,2.4575,2.4557,2.4596,2.4648,2.4657,2.4856,2.4819,2.4845,2.4891,2.509,2.5096,2.5101,2.5099,2.5108,2.5115,0,0,0,0,0,0,2.4151,2.425,2.4258,2.4364,2.443,2.4519,2.4569,2.4582,2.4656,2.4653,2.4703,2.4724,2.4823,2.4868,2.4826,2.4994,2.4971,2.4983,2.4961,2.497,2.4976,2.4963,2.4826,0,0,0,0,0,2.4161,2.4233,2.4316,2.4401,2.4434,2.4496,2.4541,2.4567,2.4639,2.4667,2.4726,2.4796,2.4874,2.4925,2.5001,2.5109,2.513,2.5154,2.516,2.5165,2.5174,2.5234,2.5246,2.5124,2.5124,2.5124,0,0,2.4182,2.4244,2.4287,2.4401,2.4455,2.453,2.4519,2.4599,2.4655,2.468,2.4779,2.4825,2.4907,2.5012,2.5062,2.5053,2.5212,2.5173,2.5176,2.5182,2.5241,2.5253,2.5263,2.5128,2.5127,2.5126,0,0,2.4258,2.4313,2.4389,2.4444,2.4527,2.4567,2.4586,2.4672,2.4703,2.4804,2.4824,2.4892,2.5026,2.5083,2.5129,2.5227,2.5239,2.5251,2.5284,2.5342,2.5352,2.536,2.5395,2.5406,2.526,2.526,2.526,0,2.4273,2.4385,2.4428,2.4506,2.4556,2.458,2.4659,2.4711,2.4814,2.4848,2.4836,2.5004,2.5061,2.518,2.5203,2.5241,2.5264,2.524,2.5347,2.5356,2.5365,2.5398,2.5411,2.5261,2.5261,2.526,2.526,0,2.4401,2.4478,2.4531,2.4629,2.4684,2.4763,2.4817,2.4869,2.489,2.4933,2.5035,2.5104,2.5194,2.5225,2.5248,2.5347,2.5339,2.5336,2.5314,2.5376,2.5408,2.5422,2.5262,2.5262,2.5261,2.5261,0,0,2.4473,2.4593,2.4612,2.4656,2.4749,2.4811,2.4891,2.4978,2.5021,2.5092,2.516,2.5273,2.5271,2.5324,2.5353,2.5404,2.5476,2.5396,2.5398,2.5407,2.559,2.559,2.5604,2.5485,2.5488,2.549,2.5583,0,2.4559,2.47,2.4741,2.4861,2.4933,2.4958,2.5028,2.5093,2.5135,2.5204,2.5251,2.5329,2.5321,2.5353,2.5405,2.5456,2.5514,2.5451,2.5549,2.5552,2.5527,2.5621,2.5622,2.5706,2.5596,2.5598,2.56,0,2.4678,2.475,2.4876,2.496,2.4992,2.5053,2.5137,2.5202,2.5277,2.5304,2.5362,2.5387,2.5472,2.5446,2.5565,2.5521,2.5564,2.5596,2.56,2.561,2.5579,2.5633,2.5735,2.5747,2.562,2.5618,2.5617,0,2.4716,2.4845,2.4938,2.4975,2.5075,2.5118,2.5162,2.5235,2.5284,2.5358,2.5391,2.5474,2.5519,2.5583,2.563,2.5607,2.5744,2.5722,2.5769,2.5768,2.5796,2.5793,2.5904,2.5825,2.5825,2.5825,2.5825,0,2.4807,2.4884,2.4956,2.5013,2.5099,2.5146,2.523,2.5276,2.534,2.5407,2.5435,2.5497,2.5555,2.5626,2.5663,2.5755,2.5776,2.58,2.5809,2.5797,2.5793,2.5825,2.582,2.5828,2.5828,2.5827,2.5826,0,2.4864,2.4916,2.5018,2.5105,2.5128,2.5188,2.5262,2.5319,2.5362,2.5446,2.5468,2.5536,2.562,2.5674,2.5781,2.5806,2.5907,2.5915,2.5881,2.5885,2.5928,2.5923,2.6063,2.6083,2.5991,2.5992,2.5993,0,2.4918,2.4977,2.507,2.5116,2.516,2.5234,2.5285,2.5334,2.5386,2.5475,2.5521,2.5607,2.5677,2.5811,2.587,2.5953,2.5962,2.6005,2.5974,2.596,2.5961,2.5956,2.5962,2.601,2.6011,2.6011,2.6012,0,2.5008,2.5031,2.5102,2.5183,2.5243,2.5309,2.5375,2.5412,2.5472,2.5529,2.5615,2.5669,2.5779,2.5863,2.5951,2.5997,2.6015,2.6021,2.6036,2.6024,2.6001,2.6013,2.5893,2.6017,2.6017,2.6016,2.6016,2.6016,2.5065,2.5118,2.5191,2.527,2.5325,2.5387,2.5443,2.5494,2.5565,2.5657,2.5682,2.5771,2.5846,2.5965,2.6013,2.6084,2.6079,2.6101,2.6106,2.611,2.611,2.5991,2.6101,2.6101,2.6101,2.6101,2.61,0,2.5155,2.5203,2.5275,2.5367,2.5429,2.5439,2.5514,2.5565,2.5643,2.571,2.5779,2.5877,2.596,2.6026,2.6111,2.6155,2.6165,2.6176,2.6172,2.6182,2.6111,2.6089,2.6166,2.6166,2.6166,2.6166,2.6166,2.6166,2.5209,2.53,2.5331,2.545,2.5498,2.5585,2.5626,2.5683,2.5737,2.5845,2.5913,2.5955,2.6023,2.6113,2.6189,2.6206,2.6236,2.6244,2.6263,2.6195,2.6188,2.6181,2.616,2.6251,2.6251,2.6329,2.6329,2.633]},{"header":{"parameterUnit":"m.s-1","parameterCategory":1,"la1":30.2991,"la2":30.254,"lo1":-89.0895,"lo2":-89.0444,"dy":0.0017,"dx":0.0017,"nx":28,"ny":28,"refTime":"2023-08-04T21:00:00:Z","depth":0,"parameterNumber":3,"parameterNumberName":"V-component_of_WINDS"},"data":[0,0,0,0,0,0,0,0,0,0,0,0,0,0,0,0,0,0,0,0,0,0,0,0,0,0,0,0,0,0,0,0,0,0,0,0,0,0,0,0,0,0,0,0,0,0,0,0,0,0,0,0,0,0,0,0,0,0,4.6518,4.6518,0,4.6546,4.6547,4.6547,4.6539,4.6538,4.6538,4.6537,4.6563,4.6564,4.6565,0,0,0,0,0,0,0,0,0,0,0,0,0,4.6451,4.6452,4.6518,4.6518,4.6519,4.6546,4.6547,4.6547,4.6539,4.6538,4.6538,4.6537,4.6562,4.6564,4.6565,0,0,0,0,0,0,0,0,0,0,0,0,0,4.648,4.6453,4.6518,4.6518,4.6518,4.6546,4.6547,4.6547,4.6539,4.6538,4.6537,4.6537,4.6562,4.6563,4.6565,4.6594,0,0,4.6571,4.6572,0,0,0,0,0,0,0,0,4.6478,4.6482,4.6518,4.6518,4.6518,4.6538,4.6532,4.6563,4.6539,4.6531,4.6537,4.6536,4.6555,4.6557,4.6564,4.6595,4.6596,4.6571,4.6572,4.6573,4.6573,0,0,0,0,0,0,0,4.6476,4.6481,4.6529,4.6518,4.6519,4.6515,4.6518,4.6538,4.6547,4.6532,4.6531,4.6535,4.6555,4.6563,4.6565,4.6596,4.6571,4.6573,4.6574,4.6574,4.6648,4.6649,0,0,0,0,0,0,4.6475,4.6479,4.6528,4.653,4.6496,4.6517,4.652,4.6533,4.6547,4.6549,4.6536,4.6534,4.656,4.6563,4.6566,4.6598,4.6573,4.6575,4.6576,4.6648,4.6649,4.665,0,0,0,0,0,0,4.6473,4.6479,4.6527,4.6504,4.651,4.6519,4.6533,4.6534,4.6541,4.655,4.6551,4.6542,4.6559,4.6563,4.6586,4.6599,4.6575,4.6577,4.6647,4.6648,4.6649,4.6663,0,0,0,0,0,0,4.6471,4.6479,4.6491,4.6505,4.6512,4.6549,4.6534,4.6535,4.6545,4.6544,4.6556,4.6558,4.6559,4.6584,4.6588,4.6601,4.6578,4.6645,4.6647,4.6649,4.6662,4.6665,4.6668,0,0,0,0,0,4.6469,4.6494,4.6492,4.6497,4.6527,4.6549,4.6553,4.6555,4.6546,4.6557,4.6562,4.6557,4.6597,4.6586,4.6591,4.6604,4.6645,4.6647,4.6649,4.6661,4.6665,4.6668,0,0,0,0,0,0,4.648,4.6495,4.6493,4.6524,4.6535,4.6548,4.6562,4.656,4.6573,4.6571,4.6572,4.6575,4.6598,4.6604,4.6592,4.6631,4.6619,4.6622,4.6627,4.663,4.6633,4.6631,4.658,0,0,0,0,0,4.6486,4.6504,4.6516,4.6542,4.6548,4.6554,4.6564,4.6564,4.6576,4.6581,4.6588,4.6598,4.6612,4.6622,4.6636,4.6663,4.6664,4.6674,4.6677,4.668,4.6682,4.6694,4.6698,4.6656,4.6656,4.6656,0,0,4.6498,4.6509,4.652,4.6544,4.6553,4.657,4.6558,4.6577,4.6589,4.6583,4.6605,4.6611,4.6622,4.6647,4.6658,4.6652,4.6694,4.6682,4.6684,4.6685,4.6696,4.67,4.6704,4.6657,4.6657,4.6657,0,0,4.6529,4.654,4.6561,4.6571,4.6585,4.6589,4.6594,4.6607,4.661,4.6633,4.6628,4.6641,4.6667,4.6675,4.6682,4.6714,4.6708,4.6718,4.6733,4.6745,4.6748,4.6751,4.676,4.6763,4.672,4.672,4.6721,0,4.6542,4.6569,4.6572,4.6591,4.66,4.6597,4.6616,4.6625,4.6643,4.6648,4.6642,4.6673,4.668,4.6705,4.6713,4.672,4.6724,4.6716,4.6748,4.675,4.6753,4.6762,4.6765,4.6721,4.6721,4.6721,4.6721,0,4.6583,4.6601,4.6616,4.6634,4.6645,4.6664,4.6669,4.6679,4.6678,4.6682,4.6704,4.6713,4.6727,4.6734,4.6733,4.6758,4.6753,4.6748,4.6735,4.6758,4.6766,4.6769,4.6723,4.6722,4.6722,4.6722,0,0,4.6621,4.664,4.6645,4.6652,4.6666,4.668,4.6698,4.6713,4.6721,4.6733,4.6746,4.6767,4.6761,4.677,4.677,4.678,4.6802,4.6773,4.6773,4.6776,4.6827,4.683,4.6834,4.6799,4.68,4.68,4.6825,0,4.6651,4.6684,4.6687,4.6716,4.6731,4.6727,4.6742,4.6752,4.6756,4.6768,4.6772,4.6786,4.6778,4.6783,4.6793,4.6797,4.6812,4.6796,4.681,4.681,4.6805,4.6839,4.6842,4.6866,4.6829,4.6829,4.683,0,4.6691,4.6704,4.6735,4.6745,4.6752,4.6766,4.6778,4.6791,4.6801,4.6803,4.6811,4.681,4.6826,4.6814,4.6835,4.6824,4.683,4.6833,4.6834,4.6834,4.682,4.6837,4.6873,4.6876,4.6835,4.6835,4.6834,0,4.6713,4.6738,4.6759,4.6765,4.6779,4.6788,4.6794,4.6803,4.6812,4.6823,4.6827,4.684,4.6846,4.6855,4.6856,4.6848,4.6877,4.6866,4.6877,4.6877,4.6882,4.6881,4.6917,4.6889,4.6889,4.6889,4.6889,0,4.6745,4.6763,4.6769,4.6781,4.6801,4.6803,4.6821,4.6826,4.6834,4.6846,4.6844,4.6855,4.6857,4.6868,4.6869,4.6885,4.6888,4.6888,4.6888,4.6888,4.6887,4.689,4.6888,4.689,4.6889,4.6889,4.6889,0,4.6772,4.6777,4.6799,4.681,4.6813,4.6826,4.6834,4.6846,4.6849,4.6864,4.6868,4.6873,4.6885,4.6888,4.6903,4.6903,4.6922,4.6921,4.6918,4.6917,4.6928,4.6926,4.6966,4.697,4.6941,4.6941,4.6941,0,4.6791,4.6805,4.6817,4.6825,4.6831,4.6845,4.6853,4.6855,4.6864,4.6875,4.6884,4.6897,4.6907,4.6927,4.6931,4.6942,4.694,4.6953,4.6941,4.694,4.6938,4.6936,4.6936,4.6955,4.6955,4.6955,4.6955,0,4.6823,4.6825,4.6838,4.6851,4.6861,4.6871,4.6881,4.6887,4.689,4.69,4.6913,4.6921,4.6936,4.6947,4.6958,4.6962,4.6959,4.6959,4.6962,4.6961,4.6958,4.6958,4.6922,4.6958,4.6958,4.6957,4.6957,4.6957,4.6845,4.6857,4.6866,4.688,4.6888,4.6896,4.6907,4.6911,4.6923,4.6936,4.6936,4.695,4.6958,4.6972,4.6977,4.6986,4.6982,4.6987,4.6987,4.6988,4.6988,4.6958,4.6989,4.6988,4.6988,4.6988,4.6988,0,4.6876,4.6882,4.6895,4.6908,4.6918,4.6915,4.6925,4.6933,4.6946,4.6954,4.6964,4.6978,4.6989,4.6994,4.7004,4.7011,4.701,4.7014,4.7012,4.7013,4.6992,4.6988,4.7015,4.7015,4.7015,4.7015,4.7015,4.7015,4.6893,4.6911,4.6913,4.6934,4.694,4.6954,4.696,4.6967,4.6973,4.6989,4.6999,4.7002,4.7008,4.7019,4.7028,4.7029,4.7033,4.7037,4.7037,4.7017,4.7015,4.7012,4.7008,4.7038,4.7038,4.7056,4.7057,4.7057]}]]